Tracking 18843 objects as of 20-November-2017
HD Live streaming from Space Station
objects crossing your sky now

ORBCOMM FM 24

Track ORBCOMM FM 24 now!
10-day predictions
ORBCOMM FM 24 is classified as:


NORAD ID: 25478
Int'l Code: 1998-053D
Perigee: 788.7 km
Apogee: 791.8 km
Inclination: 45.0 °
Period: 100.5 minutes
Semi major axis: 7161 km
RCS: 0.622 m2 (medium)
Launch date: September 23, 1998
Source: ORBCOMM (ORB)
Launch site: Pegasus launched from Eastern Range Air Space (ERAS)
aabbcc
Your satellite tracking list
Your tracking list is empty




NASA's NSSDC Master Catalog

Two Line Element Set (TLE):
1 25478U 98053D   17323.47829224 +.00000118 +00000-0 +94574-4 0  9998
2 25478 045.0110 337.1097 0002186 246.1314 113.9304 14.32585775000353
Source of the keplerian elements: AFSPC